This is the latest recevied weather packets stored in our database for station/object ALTO-WX. If no packets are shown the sender has not sent any weather packets the latest 10 day(s).
| Time | Temp. | Humidity | Pressure | Rain* | Wind** | Luminosity | Snow |
|---|---|---|---|---|---|---|---|
| 1777517132 | 5.56° C | 91% | 983.5 hPa | 0 mm | - | - | - |
| 1777516246 | 5.56° C | 89% | 984.3 hPa | 0 mm | - | - | - |
| 1777515332 | 6.11° C | 89% | 984.3 hPa | 0 mm | - | - | - |
| 1777514458 | 6.11° C | 89% | 984.3 hPa | 0 mm | - | - | - |
| 1777513531 | 6.11° C | 90% | 983.3 hPa | 0 mm | - | - | - |
| 1777512645 | 6.67° C | 90% | 983.3 hPa | 0 mm | - | - | - |
| 1777511732 | 6.11° C | 90% | 983.3 hPa | 0 mm | - | - | - |
| 1777510856 | 6.11° C | 90% | 983.3 hPa | 0 mm | - | - | - |
| 1777509932 | 6.11° C | 90% | 983 hPa | 0 mm | - | - | - |
| 1777509046 | 6.67° C | 90% | 983.3 hPa | 0 mm | - | - | - |
| 1777508132 | 6.67° C | 90% | 983.3 hPa | 0 mm | - | - | - |
| 1777507258 | 6.67° C | 90% | 983.3 hPa | 0 mm | - | - | - |
| 1777506333 | 6.67° C | 90% | 982.7 hPa | 0 mm | - | - | - |
| 1777505447 | 7.22° C | 87% | 982.8 hPa | 0 mm | - | - | - |
| 1777504533 | 7.78° C | 87% | 982.8 hPa | 0 mm | - | - | - |
| 1777503656 | 7.78° C | 87% | 982.8 hPa | 0 mm | - | - | - |
| 1777502733 | 7.78° C | 91% | 982.4 hPa | 0.25 mm | - | - | - |
| 1777501846 | 7.78° C | 91% | 982.9 hPa | 0.25 mm | - | - | - |
| 1777500933 | 7.78° C | 91% | 982.9 hPa | 0.51 mm | - | - | - |
| 1777500060 | 7.78° C | 91% | 982.9 hPa | 0.51 mm | - | - | - |
| 1777499133 | 7.78° C | 90% | 982.5 hPa | 0.51 mm | - | - | - |
| 1777498250 | 7.78° C | 89% | 982.1 hPa | 0.51 mm | - | - | - |
| 1777497333 | 7.78° C | 89% | 982.1 hPa | 0.51 mm | - | - | - |
| 1777496458 | 7.78° C | 89% | 982.1 hPa | 0.51 mm | - | - | - |
| 1777495534 | 8.33° C | 91% | 983.2 hPa | 1.52 mm | - | - | - |
* Rain latest hour (hover to see other rain measurements)
** Current wind speed in m/s (hover to see current wind gust speed)